Flag for Italy Weather past 2 weeks in Naples, Italy

Now
63 °F

Passing clouds.


Feels Like: 63 °F
Forecast: 59 / 73 °F
Wind: 7 mph from North

Location: Naples / Capodichino

Current Time: May 28, 2015 at 12:34:55 AM

Latest Report: May 27, 2015 at 11:20 PM


Visibility: N/A

Pressure: 29.95 "Hg

Humidity: 68%

Dew point: 52 °F

Location of NaplesLocation

Historic Weather in Naples — Graph

°F

Naples temperature yesterday

Maximum temperature yesterday: 75 °F (at 12:50 PM)
Minimum temperature yesterday: 61 °F (at 12:20 AM)
Average temperature yesterday: 65 °F

Past Weeks' High & Low Weather Summary

 TemperatureHumidityPressure
High86 °F (May 18, 2:20 PM)100% (May 25, 5:20 AM)30.24 "Hg (May 25, 5:20 AM)
Low52 °F (May 22, 5:50 AM)19% (May 15, 2:20 PM)29.74 "Hg (May 15, 1:50 PM)
Average67 °F68%29.92 "Hg
* Reported May 12 10:20 PM — May 27 10:20 PM, Naples, Weather by CustomWeather, © 2015

Note: Actual official high and low records may vary slightly from our data, if they occured in-between our weather recording intervals... More about our weather records

Advertising

Naples weather history for previous 24 hours

 ConditionsComfort  
Time TempWeatherWind HumidityBarometerVisibility
10:20 PM
Wed, May 27
63 °FPassing clouds.6 mph73%29.95 "HgN/A
9:50 PM63 °FPassing clouds.3 mph88%29.95 "HgN/A
9:20 PM63 °FPartly sunny.5 mph88%29.95 "HgN/A
8:50 PM63 °FPartly sunny.5 mph83%29.92 "HgN/A
8:20 PM63 °FPartly sunny.6 mph83%29.92 "HgN/A
7:50 PM63 °FLight rain. Partly sunny.6 mph83%29.92 "HgN/A
7:20 PM63 °FLight rain. Partly sunny.6 mph83%29.92 "HgN/A
6:50 PM64 °FLight rain. Partly sunny.7 mph78%29.92 "HgN/A
6:20 PM64 °FLight rain. Partly sunny.7 mph78%29.92 "HgN/A
5:50 PM64 °FLight rain. Partly sunny.10 mph73%29.89 "HgN/A
5:20 PM66 °FLight rain. Partly sunny.7 mph64%29.89 "HgN/A
4:50 PM68 °FLight rain. Partly sunny.6 mph69%29.89 "HgN/A
4:20 PM68 °FLight rain. Partly sunny.6 mph69%29.89 "HgN/A
3:50 PM66 °FLight rain. Partly sunny.7 mph73%29.89 "HgN/A
3:20 PM66 °FLight rain. Partly sunny.9 mph73%29.86 "HgN/A
2:50 PM64 °FThunderstorms. Partly sunny.12 mph73%29.86 "HgN/A
2:20 PM68 °FLight rain. Partly sunny.10 mph60%29.86 "HgN/A
1:50 PM73 °FPartly sunny.10 mph44%29.86 "HgN/A
1:20 PM75 °FPartly sunny.5 mph41%29.86 "HgN/A
12:50 PM75 °FPartly sunny.8 mph44%29.86 "HgN/A
12:20 PMN/ANo windN/AN/AN/A
11:50 AM72 °FScattered clouds.7 mph53%29.86 "HgN/A
11:20 AM72 °FScattered clouds.7 mph53%29.86 "HgN/A
10:50 AM72 °FScattered clouds.6 mph53%29.86 "HgN/A
10:20 AM70 °FScattered clouds.7 mph57%29.86 "HgN/A
9:50 AM68 °FScattered clouds.8 mph56%29.86 "HgN/A
9:20 AM68 °FPassing clouds.9 mph53%29.83 "HgN/A
8:50 AM68 °FPassing clouds.6 mph64%29.83 "HgN/A
8:20 AM66 °FPassing clouds.6 mph64%29.83 "HgN/A
7:50 AM64 °FPassing clouds.8 mph73%29.83 "HgN/A
7:20 AM64 °FPassing clouds.6 mph73%29.80 "HgN/A
6:50 AM63 °FPassing clouds.3 mph83%29.80 "HgN/A
6:20 AM61 °FPassing clouds.2 mph88%29.80 "HgN/A
5:50 AM61 °FPassing clouds.2 mph83%29.80 "HgN/A
5:20 AM61 °FPassing clouds.5 mph83%29.80 "HgN/A
4:50 AM61 °FPassing clouds.5 mph88%29.80 "HgN/A
4:20 AMN/A5 mphN/AN/AN/A
3:50 AM61 °FPassing clouds.3 mph88%29.80 "HgN/A
3:20 AM61 °FPassing clouds.5 mph88%29.80 "HgN/A
2:50 AM61 °FPassing clouds.5 mph88%29.80 "HgN/A
2:20 AM61 °FPassing clouds.3 mph88%29.80 "HgN/A
1:50 AM61 °FPassing clouds.6 mph88%29.80 "HgN/A
1:20 AM61 °FPassing clouds.3 mph88%29.80 "HgN/A
12:50 AM61 °FPassing clouds.5 mph88%29.80 "HgN/A
12:20 AM61 °FPassing clouds.6 mph88%29.80 "HgN/A
Weather by CustomWeather, © 2015

See weather overviewHow to use our weather pages